Flag for Switzerland Weather past 2 weeks in La-Chaux-de-Fonds, Neuchâtel, Switzerland

48 °F

Broken clouds.

Feels Like: 44 °F
Forecast: 40 / 48 °F
Wind: 10 mph from West

Location: Les Eplatures

Current Time: Oct 7, 2015 at 2:40:36 PM

Latest Report: Oct 7, 2015 at 2:20 PM

Visibility: N/A

Pressure: 30.04 "Hg (26.61 "Hg at 1000m altitude)

Humidity: 87%

Dew point: 45 °F

Location of La-Chaux-de-FondsLocation

Historic Weather in La-Chaux-de-Fonds — Graph


La-Chaux-de-Fonds temperature yesterday

Maximum temperature yesterday: 63 °F (at 10:20 AM)
Minimum temperature yesterday: 50 °F (at 5:20 AM)
Average temperature yesterday: 55 °F

Past Weeks' High & Low Weather Summary

High66 °F (Oct 5, 1:50 PM)100% (Sep 23, 8:50 PM)30.36 "Hg (Sep 23, 8:50 PM)
Low34 °F (Sep 30, 6:20 AM)42% (Oct 2, 3:20 PM)29.71 "Hg (Sep 22, 7:20 PM)
Average49 °F79%30.12 "Hg
* Reported Sep 22 1:20 PM — Oct 7 1:20 PM, La-Chaux-de-Fonds, Weather by CustomWeather, © 2015

Note: Actual official high and low records may vary slightly from our data, if they occured in-between our weather recording intervals... More about our weather records


La-Chaux-de-Fonds weather history for previous 24 hours

Time TempWeatherWind HumidityBarometerVisibility
1:20 PM
Wed, Oct 7
50 °FPartly sunny.14 mph82%30.04 "HgN/A
12:50 PM48 °FPartly sunny.12 mph87%30.04 "HgN/A
12:20 PM48 °FLight rain. Broken clouds.12 mph87%30.04 "HgN/A
11:50 AM48 °FPartly sunny.13 mph87%30.04 "HgN/A
11:20 AM48 °FPartly sunny.12 mph87%30.01 "HgN/A
10:50 AM48 °FPartly sunny.13 mph87%30.01 "HgN/A
10:20 AM46 °FBroken clouds.6 mph93%30.01 "HgN/A
9:50 AM46 °FDrizzle. Partly sunny.8 mph93%30.01 "HgN/A
9:20 AM46 °FPassing clouds.9 mph93%30.01 "HgN/A
8:50 AM46 °FPassing clouds.8 mph100%29.98 "HgN/A
8:20 AM48 °FPassing clouds.8 mph94%29.98 "Hg4 mi
7:50 AM48 °FPassing clouds.5 mph94%29.98 "HgN/A
7:20 AM48 °FPassing clouds.8 mph94%29.95 "HgN/A
6:50 AM48 °FPassing clouds.8 mph94%29.95 "HgN/A
6:20 AM48 °FPartly cloudy.8 mph100%29.95 "HgN/A
5:50 AM48 °FSprinkles. Low clouds.9 mph100%29.95 "HgN/A
5:20 AM50 °FPartly cloudy.10 mph94%29.92 "HgN/A
4:50 AM50 °FPassing clouds.8 mph94%29.92 "HgN/A
4:20 AM50 °FSprinkles. Passing clouds.12 mph94%29.92 "Hg6 mi
3:50 AM50 °FPassing clouds.7 mph100%29.92 "HgN/A
3:20 AM52 °FPassing clouds.9 mph94%29.92 "HgN/A
2:50 AM52 °FRain showers. Passing clouds.8 mph94%29.92 "Hg3 mi
2:20 AM52 °FSprinkles. Passing clouds.6 mph94%29.92 "HgN/A
1:50 AM52 °FPartly cloudy.7 mph94%29.92 "HgN/A
1:20 AM52 °FPassing clouds.9 mph94%29.92 "HgN/A
12:50 AM54 °FSprinkles. Passing clouds.9 mph88%29.92 "Hg3 mi
12:20 AM54 °FPartly cloudy.12 mph88%29.92 "HgN/A
11:20 PM
Tue, Oct 6
52 °FPartly cloudy.3 mph94%29.89 "HgN/A
10:50 PM52 °FPartly cloudy.2 mph100%29.89 "HgN/A
10:20 PM50 °FPassing clouds.2 mph100%29.89 "HgN/A
9:50 PM52 °FClear.1 mph94%29.89 "Hg10 mi
9:20 PM52 °FClear.1 mph94%29.89 "Hg10 mi
8:50 PM54 °FLight rain. Partly sunny.2 mph88%29.89 "HgN/A
8:20 PM52 °FSunny.1 mph94%29.86 "Hg10 mi
7:50 PM54 °FClear.1 mph94%29.86 "HgN/A
7:20 PM52 °FSunny.1 mph94%29.86 "Hg10 mi
6:50 PM54 °FPartly sunny.1 mph94%29.86 "HgN/A
6:20 PM54 °FScattered clouds.1 mph94%29.86 "HgN/A
5:50 PM55 °FBroken clouds.6 mph88%29.83 "HgN/A
5:20 PM57 °FBroken clouds.6 mph88%29.83 "HgN/A
4:50 PM57 °FBroken clouds.5 mph88%29.83 "HgN/A
4:20 PM55 °FBroken clouds.5 mph88%29.83 "HgN/A
3:50 PM55 °FBroken clouds.5 mph88%29.83 "HgN/A
3:20 PM54 °FLight rain. Partly sunny.5 mph94%29.83 "HgN/A
2:50 PM54 °FRain. More clouds than sun.3 mph94%29.83 "HgN/A
2:20 PM54 °FRain. More clouds than sun.3 mph94%29.83 "Hg6 mi
Weather by CustomWeather, © 2015

See weather overviewHow to use our weather pages